Location: Devore Heights
(34.2372°N, 117.4156°W)
Time: 22:56:16
(UTC+00:00)

Transit 4A - Pass Details

Date: 17 September 2024
Orbit: 864 x 978 km, 66.8° (Epoch: 13 October)

Event Time Altitude Azimuth Distance (km) Brightness Sun altitude
Rises 21:00:28 0° 311° (NW) 3,637 10.9 53.0°
Reaches altitude 10° 21:04:11 10° 290° (WNW) 2,703 10.6 52.5°
Maximum altitude 21:07:33 15° 257° (WSW) 2,362 10.7 52.1°
Drops below altitude 10° 21:10:56 10° 225° (SW) 2,715 11.2 51.7°
Sets 21:14:42 0° 203° (SSW) 3,661 11.6 51.3°
